Location: Bothwell
(42.3833°S, 147.0000°E)
Time: 06:15:22
(UTC+10:00)

SEEDS - Visible Passes

Search period start: 25 September 2022 00:00
Search period end: 05 October 2022 01:00
Orbit: 580 x 596 km, 97.6° (Epoch: 24 September)

Date Brightness Start Highest point End Pass type
(mag) Time Alt. Az. Time Alt. Az. Time Alt. Az.
25 Sep ? 02:25:51 15° SE 02:25:51 15° SE 02:27:28 10° SSE visible
25 Sep ? 04:02:20 22° SW 04:02:20 22° SW 04:03:58 10° SSW visible
26 Sep ? 02:33:06 18° SE 02:33:06 18° SE 02:35:13 10° SSE visible
26 Sep ? 04:09:35 21° SW 04:09:35 21° SW 04:11:19 10° SSW visible
27 Sep ? 02:40:21 22° SE 02:40:21 22° SE 02:42:54 10° SSE visible
27 Sep ? 04:16:50 21° SW 04:16:50 21° SW 04:18:37 10° SSW visible
28 Sep ? 02:47:36 26° SE 02:47:36 26° SE 02:50:31 10° S visible
28 Sep ? 04:24:05 19° WSW 04:24:05 19° WSW 04:25:52 10° SW visible
29 Sep ? 02:54:50 32° SE 02:54:50 32° SE 02:58:06 10° S visible
29 Sep ? 04:31:19 18° WSW 04:31:19 18° WSW 04:33:05 10° SW visible
30 Sep ? 03:02:05 38° ESE 03:02:05 38° ESE 03:05:38 10° S visible
30 Sep ? 04:38:33 16° WSW 04:38:33 16° WSW 04:40:12 10° SW visible
01 Oct ? 03:09:18 47° ESE 03:09:18 47° ESE 03:13:09 10° S visible
01 Oct ? 04:45:47 14° WSW 04:45:47 14° WSW 04:47:12 10° WSW visible
02 Oct ? 04:16:31 58° ESE 04:16:31 58° ESE 04:20:39 10° S visible
02 Oct ? 05:53:00 12° W 05:53:00 12° W 05:54:00 10° WSW visible
03 Oct ? 04:23:45 70° E 04:23:53 71° ESE 04:28:06 10° S visible
04 Oct ? 04:30:57 75° NNE 04:31:18 87° ESE 04:35:32 10° SSW visible
